TUBIN
1 48900U 21059X   25247.21689484  .00098232  00000-0  84914-3 0  9993
2 48900  97.6771  64.0073 0002657 262.9071  97.1888 15.68893232233586
LEDSAT
1 49069U 21073D   25247.21171526  .00206277  00000-0  12467-2 0  9992
2 49069  97.3796 333.1781 0004994 136.5527 223.6134 15.77016937225008
CUTE
1 49263U 21088D   25247.19381291  .00040502  00000-0  69614-3 0  9997
2 49263  97.4452 326.1677 0004839 274.5160  85.5539 15.51013987217834
TeikyoSat 4
1 49396U 21102B   25247.15592224  .00003292  00000-0  21773-3 0  9996
2 49396  97.4052 282.4487 0012140 188.0788 172.0247 15.07983396209592
Z-Sat
1 49399U 21102E   25247.22440533  .00006127  00000-0  32934-3 0  9993
2 49399  97.3744 286.1615 0018602 158.5283 201.6733 15.15089508210094
KOSEN 1
1 49402U 21102H   25247.06304372  .00011891  00000-0  53089-3 0  9998
2 49402  97.3640 290.0925 0016863 132.7974 227.4684 15.21386395210430
HO-113
1 50466U 21131B   25247.28717546  .00001022  00000-0  33241-3 0  9990
2 50466  98.5086 336.2134 0003359 223.7319 136.3604 14.40908199193931
SNUGLITE 2
1 52899U 22065F   25247.12684321  .00002319  00000-0  45732-3 0  9994
2 52899  98.1803  28.3229 0007268 193.1728 166.9285 14.63409769169141
UmKA 1 (RS40S)
1 57172U 23091G   25247.21857772  .00008408  00000-0  43635-3 0  9990
2 57172  97.5512 302.1619 0014917  40.6378 319.5966 15.16288524120605
CubeBel-2 (EU11S)
1 57175U 23091K   25247.27035989  .00013316  00000-0  60442-3 0  9996
2 57175  97.5508 303.9203 0012511  46.8431 313.3848 15.20853820120723
ENSO
1 58470U 23185J   25247.26013296  .00129040  00000-0  11722-2 0  9993
2 58470  97.3648 325.7490 0005195 135.9370 224.2306 15.67561926 98555
EIRSAT-1
1 58472U 23185L   25247.00725237  .06006063  24622-5  11271-2 0  9997
2 58472  97.3335 330.1122 0012500 266.6451  93.3414 16.31918680 98822
SONATE-2
1 59112U 24043Q   25247.08260171  .00026541  00000-0  69620-3 0  9990
2 59112  97.5230  20.2083 0010677 161.5396 198.6238 15.38578893 83626
MO-122
1 60209U 24125G   25247.13717966  .00027586  00000-0  70855-3 0  9997
2 60209  97.2700  97.9147 0017474 180.4271 179.6963 15.39113763 65255
GRBBeta
1 60237U 24128C   25247.02697518  .00008272  00000-0  59991-3 0  9998
2 60237  61.9913 137.9960 0056509  76.2379 284.4994 15.03352177 63196
Curium One
1 60242U 24128H   25247.10731359  .00013768  00000-0  91007-3 0  9995
2 60242  61.9811 134.6364 0056436  73.0383 287.6885 15.06365766 63263
ROBUSTA-3A
1 60243U 24128J   25247.07180456  .00014016  00000-0  94032-3 0  9996
2 60243  61.9882 135.8904 0055835  70.4718 290.2393 15.05835075 63246
CatSat
1 60246U 24125J   25247.14573897  .00026600  00000-0  81852-3 0  9997
2 60246  97.2514  96.1130 0041410 143.7315 216.6747 15.32771855 63233
HYPERVIEW-1G (RS66S)
1 61772U 24199AP  25247.26119588  .00031988  00000-0  82584-3 0  9997
2 61772  97.3398 116.0758 0010840 234.7633 125.2599 15.39026336 90272
AO-123
1 61781U 24199AY  25247.23625755  .00010488  00000-0  36854-3 0  9993
2 61781  97.3421 113.8873 0013678 247.6544 112.3247 15.29474603 90122
ZIMSAT 2
1 61783U 24199BA  25247.27112585  .00065161  00000-0  12622-2 0  9995
2 61783  97.3354 117.5220 0009862 223.9302 136.1165 15.47439302 93522
HADES-R (SO-124)
1 62690U 25009CK  25247.15929948  .00063304  00000-0  18170-2 0  9991
2 62690  97.4038 327.9502 0003363 155.5699 204.5704 15.35624187 35405
HYDRA-T
1 62692U 25009CM  25247.19122084  .00066642  00000-0  18853-2 0  9999
2 62692  97.4031 328.0601 0003094 150.2456 209.8965 15.36063655 35412
JINJUSat 1B
1 63210U 25052A   25247.21217480  .00016019  00000-0  69327-3 0  9998
2 63210  97.4290 140.2830 0005200  45.2116 314.9542 15.22498925 26428
NUSHSAT 1
1 63211U 25052B   25247.18888139  .00019249  00000-0  82118-3 0  9991
2 63211  97.4278 140.2908 0005392  49.0644 311.1059 15.22945801 26423
TEVEL2-4
1 63213U 25052D   25247.22159033  .00017126  00000-0  73968-3 0  9997
2 63213  97.4189 140.0610 0005114  64.9020 295.2746 15.22552608 26424
TEVEL2-5
1 63214U 25052E   25247.22367025  .00017264  00000-0  74634-3 0  9994
2 63214  97.4197 140.0591 0005110  64.8926 295.2841 15.22518337 26429
TEVEL2-6
1 63215U 25052F   25247.16235595  .00017328  00000-0  75005-3 0  9998
2 63215  97.4201 139.9909 0005191  65.3713 294.8063 15.22475175 26417
TEVEL2-1
1 63217U 25052H   25247.18651003  .00017882  00000-0  77952-3 0  9996
2 63217  97.4171 139.9028 0005494  72.2300 287.9535 15.22225091 26419
TEVEL2-3
1 63218U 25052J   25247.18663047  .00017979  00000-0  78354-3 0  9992
2 63218  97.4174 139.9045 0005534  72.9660 287.2182 15.22233057 26415
TEVEL2-2
1 63219U 25052K   25247.18719676  .00017704  00000-0  77191-3 0  9997
2 63219  97.4175 139.9030 0005521  72.9699 287.2142 15.22221375 26415
TEVEL2-9
1 63237U 25052AD  25247.19153177  .00017271  00000-0  78137-3 0  9996
2 63237  97.4235 139.7374 0009953  77.6177 282.6173 15.20930629 26394
TEVEL2-7
1 63238U 25052AE  25247.19788681  .00016766  00000-0  76053-3 0  9994
2 63238  97.4237 139.7331 0009985  77.4359 282.7993 15.20845320 26399
TEVEL2-8
1 63239U 25052AF  25247.20167939  .00016419  00000-0  74555-3 0  9994
2 63239  97.4234 139.7262 0010039  77.8746 282.3613 15.20814566 26399
HYDRA-W
1 63490U 25052BL  25247.21138675  .00044617  00000-0  16316-2 0  9990
2 63490  97.4170 140.6580 0013366  74.2816 285.9897 15.27847197 26460
HADES-ICM (SO-125)
1 63492U 25052BN  25247.19216704  .00042429  00000-0  15870-2 0  9992
2 63492  97.4185 140.5453 0013632  77.1343 283.1418 15.27110544 26456
